Location: Kumla
(59.1265°N, 15.1401°E)
Time: 21:00:08
(UTC+01:00)

SR - Visible Passes

Search period start: 06 December 2023 00:00
Search period end: 16 December 2023 00:00
Orbit: 571 x 872 km, 66.7° (Epoch: 06 December)

Date Brightness Start Highest point End Pass type
(mag) Time Alt. Az. Time Alt. Az. Time Alt. Az.
06 Dec ? 17:01:10 10° NW 17:06:56 50° NNE 17:10:58 19° E visible
06 Dec ? 18:43:27 10° NW 18:49:22 79° SW 18:50:17 63° SSE visible
06 Dec ? 20:26:02 10° WNW 20:29:35 24° W 20:29:35 24° W visible
07 Dec ? 16:09:23 10° WNW 16:15:01 43° NNE 16:20:33 10° E visible
07 Dec ? 17:51:49 10° NW 17:57:46 76° NE 18:00:31 32° ESE visible
07 Dec ? 19:34:07 10° NW 19:39:30 39° WSW 19:39:50 38° SW visible
08 Dec ? 17:00:09 10° NW 17:06:01 58° NNE 17:10:53 14° ESE visible
08 Dec ? 18:42:23 10° NW 18:48:11 59° SW 18:50:11 38° S visible
08 Dec ? 20:25:27 10° WNW 20:29:06 17° WSW 20:29:30 17° WSW visible
09 Dec ? 16:08:25 10° NW 16:14:09 48° NNE 16:19:44 10° E visible
09 Dec ? 17:50:43 10° NW 17:56:40 85° SW 18:00:43 20° SE visible
09 Dec ? 19:33:13 10° WNW 19:38:04 28° WSW 19:40:03 22° SSW visible
10 Dec ? 16:59:05 10° NW 17:05:01 71° NE 17:10:42 10° ESE visible
10 Dec ? 18:41:21 10° NW 18:46:51 43° WSW 18:50:50 17° S visible
10 Dec ? 20:25:42 10° W 20:27:25 11° W 20:29:06 10° WSW visible
11 Dec ? 16:07:24 10° NW 16:13:13 55° NNE 16:18:51 10° ESE visible
11 Dec ? 17:49:38 10° NW 17:55:28 65° SW 18:01:01 10° SSE visible
11 Dec ? 19:32:31 10° WNW 19:36:30 19° WSW 19:40:22 10° SSW visible
12 Dec ? 16:57:59 10° NW 17:03:56 89° NE 17:09:35 10° SE visible
12 Dec ? 18:40:24 10° WNW 18:45:26 31° WSW 18:50:14 10° S visible
13 Dec ? 16:06:19 10° NW 16:12:14 67° NNE 16:17:53 10° ESE visible
13 Dec ? 17:48:35 10° NW 17:54:11 47° SW 17:59:29 10° SSE visible
13 Dec ? 19:32:21 10° WNW 19:34:51 13° WSW 19:37:17 10° SW visible
14 Dec ? 16:56:53 10° NW 17:02:45 71° SW 17:08:18 10° SE visible
14 Dec ? 18:39:37 10° WNW 18:43:53 22° WSW 18:48:00 10° SSW visible
15 Dec ? 07:38:00 10° ESE 07:40:04 12° ESE 07:42:10 10° E visible
15 Dec ? 16:05:14 10° NW 16:11:10 83° NE 16:16:48 10° SE visible
15 Dec ? 17:47:35 10° NW 17:52:46 34° WSW 17:57:42 10° S visible
